Naples, Italy

5:25 AM CEST on April 25, 2018 (GMT +0200)
Capodichino Mil

Weather History for LIRN - January, 2012

Change the Weather History Date:

Tuesday, January 31, 2012

  Actual Average Record
Temperature  
Mean Temperature 46 °F -  
Max Temperature 50 °F 56 °F 66 °F (2014)
Min Temperature 41 °F 40 °F 28 °F (2004)
Degree Days  
Heating Degree Days 20    
Moisture  
Dew Point 34 °F    
Average Humidity 63    
Maximum Humidity 76    
Minimum Humidity 50    
Precipitation  
Precipitation 0.00 in 0.13 in - ()
Sea Level Pressure  
Sea Level Pressure 30.01 in    
Wind  
Wind Speed 5 mph ()    
Max Wind Speed 9 mph    
Max Gust Speed -    
Visibility 5.8 miles    
Events      
Averages and records for this station are not official NWS values.
T = Trace of Precipitation, MM = Missing Value Source: Averaged Metar Reports

Daily Weather History Graph

Daily Weather History Graph

Search for Another Location

Airport or City:

Astronomy

Jan. 31, 2012 Rise Set
Actual Time 7:14 AM CET 5:18 PM CET
Civil Twilight 6:45 AM CET 5:47 PM CET
Nautical Twilight 6:12 AM CET 6:20 PM CET
Astronomical Twilight 5:40 AM CET 6:52 PM CET
Moon 10:58 AM CET (1/31) 12:45 AM CET (1/31)
Length of Visible Light 11h 01m
Length of Day
10h 03m
First Quarter, 53% of the Moon is Illuminated
Jan 31
First Quarter
Feb 7
Full
Feb 14
Last Quarter
Feb 21
New
Mar 1
First Quarter

Hourly Weather History & Observations

Time (CET) Temp. Windchill Dew Point Humidity Pressure Visibility Wind Dir Wind Speed Gust Speed Precip Events Conditions
12:20 AM 44.6 °F 39.7 °F 33.8 °F 66% 30.01 in 6.2 mi NNE 9.2 mph - N/A   Scattered Clouds
12:50 AM 42.8 °F 38.0 °F 32.0 °F 66% 30.01 in 6.2 mi NNE 8.1 mph - N/A   Scattered Clouds
1:20 AM 42.8 °F 37.5 °F 32.0 °F 66% 30.01 in 6.2 mi NNE 9.2 mph - N/A   Scattered Clouds
1:50 AM 42.8 °F 38.6 °F 32.0 °F 66% 30.01 in 6.2 mi NNE 6.9 mph - N/A   Scattered Clouds
2:20 AM 42.8 °F 38.0 °F 32.0 °F 66% 30.01 in 6.2 mi NNE 8.1 mph - N/A   Scattered Clouds
2:50 AM 42.8 °F 39.3 °F 32.0 °F 66% 30.01 in 6.2 mi NNE 5.8 mph - N/A   Scattered Clouds
3:20 AM 42.8 °F 39.3 °F 32.0 °F 66% 30.01 in 6.2 mi NNE 5.8 mph - N/A   Scattered Clouds
3:50 AM 42.8 °F 39.3 °F 32.0 °F 66% 29.98 in 6.2 mi NNE 5.8 mph - N/A   Scattered Clouds
4:20 AM 42.8 °F 38.6 °F 32.0 °F 66% 29.98 in 6.2 mi NNE 6.9 mph - N/A   Scattered Clouds
4:50 AM 42.8 °F 38.0 °F 32.0 °F 66% 29.98 in 6.2 mi NNE 8.1 mph - N/A   Partly Cloudy
5:20 AM 42.8 °F 38.6 °F 32.0 °F 66% 30.01 in 6.2 mi NNE 6.9 mph - N/A   Partly Cloudy
5:50 AM 41.0 °F 37.1 °F 32.0 °F 70% 30.01 in 6.2 mi NNE 5.8 mph - N/A   Partly Cloudy
6:20 AM 41.0 °F 36.4 °F 32.0 °F 70% 30.01 in 6.2 mi North 6.9 mph - N/A   Partly Cloudy
6:50 AM 41.0 °F 37.1 °F 32.0 °F 70% 30.01 in - North 5.8 mph - N/A   Clear
7:20 AM 41.0 °F 37.1 °F 32.0 °F 70% 30.01 in 6.2 mi North 5.8 mph - N/A   Scattered Clouds
7:50 AM 42.8 °F 39.3 °F 32.0 °F 66% 30.01 in 6.2 mi North 5.8 mph - N/A   Mostly Cloudy
8:20 AM 42.8 °F 39.3 °F 32.0 °F 66% 30.01 in 6.2 mi NNE 5.8 mph - N/A   Mostly Cloudy
8:50 AM 44.6 °F 41.4 °F 32.0 °F 61% 30.01 in 6.2 mi NNE 5.8 mph - N/A   Mostly Cloudy
9:20 AM 44.6 °F 40.7 °F 33.8 °F 66% 30.04 in 6.2 mi North 6.9 mph - N/A   Scattered Clouds
9:50 AM 46.4 °F 42.9 °F 33.8 °F 62% 30.04 in 6.2 mi North 6.9 mph - N/A   Scattered Clouds
10:20 AM 46.4 °F 43.5 °F 32.0 °F 57% 30.04 in 6.2 mi NNE 5.8 mph - N/A   Mostly Cloudy
10:50 AM 48.2 °F - 32.0 °F 54% 30.04 in 6.2 mi NNW 5.8 mph - N/A   Mostly Cloudy
11:20 AM 48.2 °F - 32.0 °F 54% 30.04 in 6.2 mi NNE 3.5 mph - N/A   Mostly Cloudy
11:50 AM 48.2 °F - 32.0 °F 54% 30.01 in 6.2 mi NNE 4.6 mph - N/A   Mostly Cloudy
12:20 PM 50.0 °F - 32.0 °F 50% 30.01 in 6.2 mi Variable 2.3 mph - N/A   Mostly Cloudy
12:50 PM 50.0 °F - 32.0 °F 50% 30.01 in 6.2 mi Variable 2.3 mph - N/A   Mostly Cloudy
1:20 PM 50.0 °F - 32.0 °F 50% 30.01 in 6.2 mi North 3.5 mph - N/A   Mostly Cloudy
1:50 PM 50.0 °F - 32.0 °F 50% 30.01 in 6.2 mi Variable 4.6 mph - N/A   Mostly Cloudy
2:20 PM 50.0 °F - 32.0 °F 50% 30.01 in 6.2 mi North 3.5 mph - N/A   Mostly Cloudy
2:50 PM 50.0 °F - 32.0 °F 50% 30.01 in 6.2 mi North 4.6 mph - N/A   Mostly Cloudy
3:20 PM 50.0 °F - 32.0 °F 50% 30.01 in 6.2 mi North 3.5 mph - N/A   Mostly Cloudy
3:50 PM 50.0 °F - 33.8 °F 54% 30.01 in 6.2 mi NNE 4.6 mph - N/A   Mostly Cloudy
4:20 PM 48.2 °F - 33.8 °F 58% 30.01 in 6.2 mi NNE 3.5 mph - N/A   Mostly Cloudy
4:50 PM 48.2 °F - 33.8 °F 58% 30.01 in 6.2 mi Variable 2.3 mph - N/A   Mostly Cloudy
5:20 PM 48.2 °F - 33.8 °F 58% 30.01 in 6.2 mi ENE 3.5 mph - N/A   Mostly Cloudy
5:50 PM 48.2 °F - 35.6 °F 62% 30.01 in 6.2 mi NE 2.3 mph - N/A   Mostly Cloudy
6:20 PM 48.2 °F - 35.6 °F 62% 30.01 in 6.2 mi NE 3.5 mph - N/A   Mostly Cloudy
6:50 PM 46.4 °F - 35.6 °F 66% 30.01 in 5.0 mi ENE 2.3 mph - N/A   Mostly Cloudy
7:20 PM 46.4 °F - 35.6 °F 66% 30.01 in 5.0 mi Variable 2.3 mph - N/A   Mostly Cloudy
7:50 PM 46.4 °F 45.2 °F 35.6 °F 66% 30.01 in 5.0 mi NE 3.5 mph - N/A   Mostly Cloudy
8:20 PM 46.4 °F - 35.6 °F 66% 30.01 in 4.3 mi Calm Calm - N/A   Mostly Cloudy
8:50 PM 46.4 °F - 35.6 °F 66% 29.98 in 4.3 mi Variable 1.2 mph - N/A   Mostly Cloudy
9:20 PM 46.4 °F - 35.6 °F 66% 29.98 in 4.3 mi Variable 2.3 mph - N/A   Mostly Cloudy
9:50 PM 48.2 °F - 37.4 °F 66% 29.98 in 4.3 mi Variable 4.6 mph - N/A   Mostly Cloudy
10:20 PM 46.4 °F - 39.2 °F 76% 29.98 in 4.3 mi Variable 2.3 mph - N/A   Mostly Cloudy
10:50 PM 46.4 °F - 37.4 °F 71% 29.95 in 4.3 mi Variable 2.3 mph - N/A   Mostly Cloudy
11:20 PM 44.6 °F - 37.4 °F 76% 29.95 in 4.3 mi ENE 2.3 mph - N/A   Mostly Cloudy
11:50 PM 46.4 °F 45.2 °F 39.2 °F 76% 29.95 in 4.3 mi East 3.5 mph - N/A   Mostly Cloudy